Simultaneous Nadir Overpasses (SNOs) Predictions

Prediction of SNOs between AQUA and METOP-B Satellite Orbit:

Table of predicted SNOs for the next 14.0 days since TLE Epoch: 7/19/2014
Index Date (AQUA) Time (AQUA) Lat,Lon (AQUA) SZA (AQUA ) Date (METOP-B) Time (METOP-B) Lat,Lon (METOP-B) SZA (METOP-B ) Distance(km) Time Diff (sec)
1 07/21/2014 19:31:53 73.10,-117.20 52.75 07/21/2014 19:30:47 73.05,-119.98 52.83 90.11 66
2 07/21/2014 20:21:32 -73.81, 48.96 126.49 07/21/2014 20:21:14 -73.79, 49.03 126.51 2.91 18
3 07/21/2014 21:11:00 73.84,-143.46 53.55 07/21/2014 21:11:53 73.83,-143.56 53.53 3.10 53
4 07/24/2014 15:06:10 73.35, -51.26 53.59 07/24/2014 15:05:01 73.32, -52.96 53.65 54.36 69
5 07/24/2014 15:55:44 -73.79, 115.44 125.94 07/24/2014 15:55:34 -73.77, 115.40 125.95 2.41 10
6 07/24/2014 16:45:13 73.87, -77.10 54.16 07/24/2014 16:46:12 73.85, -77.09 54.13 2.86 59
7 07/27/2014 10:40:28 73.66, 14.53 54.54 07/27/2014 10:39:15 73.59, 14.06 54.50 16.58 73
8 07/27/2014 11:29:56 -73.79,-178.10 125.32 07/27/2014 11:29:53 -73.80,-178.13 125.31 1.83 3
9 07/27/2014 12:19:25 73.87, -10.65 54.78 07/27/2014 12:20:31 73.87, -10.63 54.77 0.82 66
10 07/30/2014 06:14:40 73.73, 80.84 55.27 07/30/2014 06:13:31 73.71, 80.75 55.27 3.59 69
11 07/30/2014 07:04:07 -73.79,-111.66 124.66 07/30/2014 07:04:11 -73.82,-111.66 124.63 3.50 4
12 07/30/2014 07:53:36 73.88, 55.78 55.45 07/30/2014 07:54:49 73.88, 55.82 55.44 1.33 73
13 08/02/2014 01:48:52 73.75, 147.25 55.99 08/02/2014 01:47:49 73.77, 147.31 56.02 3.20 63




NCC Satellite Simultaneous Nadir Overpasses (SNOs) Prediction Service
